SR6WXP Weather Reports


time (UTC)temp
C
wind
direction
speed
KPH
gust
KPH
rain 1hr
cm
rain 24hr
cm
rain mn
cm
humidity
%
barometer
mb
20260506224145 15 108 1.6 1.6 0.00 0.00 0.00 92 983.7
20260506223745 15 99 1.6 3.2 0.00 0.00 0.00 92 983.8
20260506223346 15 73 1.6 3.2 0.00 0.00 0.00 93 983.7
20260506222946 15 46 3.2 4.8 0.00 0.00 0.00 93 983.7
20260506222546 15 37 4.8 8.0 0.00 0.00 0.00 94 983.7
20260506221743 15 21 4.8 9.7 0.00 0.00 0.00 94 983.7
20260506221343 15 24 4.8 8.0 0.00 0.00 0.00 94 983.8
20260506220941 15 55 4.8 8.0 0.00 0.00 0.00 94 983.7
20260506220541 15 46 6.4 9.7 0.00 0.00 0.00 95 983.7
20260506220139 15 15 4.8 8.0 0.00 0.00 0.00 95 983.7
20260506215339 15 29 4.8 8.0 0.00 0.00 0.00 95 983.8
20260506214939 15 5 1.6 6.4 0.00 0.00 0.00 95 983.8
20260506214539 15 333 3.2 8.0 0.00 0.00 0.00 96 983.9
20260506214137 15 344 4.8 9.7 0.00 0.00 0.00 96 983.9
20260506213737 15 3 9.7 12.9 0.00 0.00 0.00 96 983.9
20260506213337 15 328 9.7 12.9 0.00 0.00 0.00 96 984.0
20260506212937 15 302 9.7 12.9 0.00 0.00 0.00 96 984.1
20260506212537 15 295 11.3 14.5 0.00 0.00 0.00 96 984.2
20260506212135 15 297 11.3 14.5 0.00 0.00 0.00 95 984.1
20260506211735 15 294 11.3 14.5 0.00 0.00 0.00 95 984.0
20260506211335 15 293 11.3 16.1 0.00 0.00 0.00 94 983.9
20260506210928 15 276 8.0 11.3 0.00 0.00 0.00 95 983.9
20260506210527 15 284 16.1 19.3 0.00 0.00 0.00 94 983.9
20260506210124 15 287 12.9 16.1 0.00 0.00 0.00 94 983.9
20260506205721 15 277 16.1 22.5 0.00 0.00 0.00 93 984.0
20260506204920 16 272 12.9 17.7 0.00 0.00 0.00 91 983.9
20260506204520 16 271 14.5 19.3 0.00 0.00 0.00 90 983.8
20260506204118 16 265 11.3 16.1 0.00 0.00 0.00 90 983.8
20260506203718 16 273 12.9 16.1 0.00 0.00 0.00 89 983.7
20260506203319 15 253 12.9 19.3 0.00 0.00 0.00 89 983.8
20260506202919 15 271 12.9 17.7 0.00 0.00 0.00 88 983.5
20260506202519 15 286 8.0 11.3 0.00 0.00 0.00 87 983.2
20260506202117 15 316 8.0 12.9 0.00 0.00 0.00 87 983.1
20260506201717 15 332 8.0 11.3 0.00 0.00 0.00 87 983.2
20260506201317 15 319 4.8 6.4 0.00 0.00 0.00 87 983.2
20260506200917 15 314 11.3 14.5 0.00 0.00 0.00 88 983.2
20260506200517 15 319 14.5 17.7 0.00 0.00 0.00 88 983.2
20260506200115 16 9 17.7 22.5 0.00 0.00 0.00 88 983.1
20260506195715 16 335 16.1 20.9 0.00 0.00 0.00 86 983.3
20260506195315 16 291 6.4 11.3 0.00 0.00 0.00 86 983.5
20260506194913 16 242 8.0 11.3 0.00 0.00 0.00 86 983.4
20260506194513 16 290 11.3 14.5 0.00 0.00 0.00 86 983.2
20260506194111 16 312 17.7 24.1 0.00 0.00 0.00 86 983.1
20260506193711 16 308 20.9 25.7 0.00 0.00 0.00 84 983.1
20260506193311 17 303 19.3 24.1 0.00 0.00 0.00 82 983.2
20260506192911 17 298 19.3 22.5 0.00 0.00 0.00 80 983.3
20260506192511 17 286 16.1 24.1 0.00 0.00 0.00 77 983.3
20260506192109 17 296 14.5 20.9 0.00 0.00 0.00 76 983.3
20260506191709 17 301 14.5 19.3 0.00 0.00 0.00 76 983.2
20260506191307 17 284 19.3 27.4 0.00 0.00 0.00 74 983.2
20260506190907 18 273 17.7 22.5 0.00 0.00 0.00 73 983.2
20260506190507 18 292 14.5 17.7 0.00 0.00 0.00 71 982.9
20260506190105 18 309 11.3 12.9 0.00 0.00 0.00 70 982.7
20260506185705 18 279 8.0 11.3 0.00 0.00 0.00 69 982.6
20260506185307 18 250 4.8 6.4 0.00 0.00 0.00 68 982.6
20260506184906 18 294 6.4 8.0 0.00 0.00 0.00 67 982.6
20260506184505 18 264 9.7 12.9 0.00 0.00 0.00 68 982.5
20260506184056 18 275 14.5 22.5 0.00 0.00 0.00 67 982.5
20260506183652 19 285 16.1 19.3 0.00 0.00 0.00 65 982.4
20260506183251 19 302 12.9 14.5 0.00 0.00 0.00 64 982.3
20260506182851 20 288 8.0 11.3 0.00 0.00 0.00 63 982.2
20260506182450 20 288 16.1 19.3 0.00 0.00 0.00 62 982.2
20260506182048 21 280 19.3 22.5 0.00 0.00 0.00 60 982.2
20260506181648 21 244 11.3 19.3 0.00 0.00 0.00 57 982.0
20260506181248 21 210 3.2 3.2 0.00 0.00 0.00 56 981.9
20260506180848 21 164 1.6 3.2 0.00 0.00 0.00 56 981.8
20260506180448 21 156 1.6 3.2 0.00 0.00 0.00 55 981.7
20260506180045 21 154 1.6 3.2 0.00 0.00 0.00 55 981.7
20260506175645 21 146 1.6 1.6 0.00 0.00 0.00 55 981.6
20260506175246 21 148 1.6 3.2 0.00 0.00 0.00 55 981.6
20260506174845 21 131 0.0 0.0 0.00 0.00 0.00 54 981.6
20260506174446 21 116 0.0 1.6 0.00 0.00 0.00 54 981.5
20260506174043 21 122 1.6 6.4 0.00 0.00 0.00 54 981.5
20260506173643 21 131 3.2 9.7 0.00 0.00 0.00 54 981.5
20260506173243 21 115 1.6 4.8 0.00 0.00 0.00 53 981.6
20260506172841 21 129 1.6 3.2 0.00 0.00 0.00 53 981.7
20260506172441 22 124 1.6 3.2 0.00 0.00 0.00 53 981.6
20260506172039 22 112 3.2 6.4 0.00 0.00 0.00 52 981.6
20260506171639 22 112 3.2 6.4 0.00 0.00 0.00 52 981.6
20260506171239 22 111 3.2 6.4 0.00 0.00 0.00 52 981.6
20260506170838 22 122 3.2 6.4 0.00 0.00 0.00 51 981.6
20260506170438 22 110 4.8 9.7 0.00 0.00 0.00 51 981.6
20260506170036 22 121 6.4 9.7 0.00 0.00 0.00 51 981.7
20260506165636 22 125 4.8 9.7 0.00 0.00 0.00 51 981.7
20260506165234 22 109 4.8 6.4 0.00 0.00 0.00 51 981.7
20260506164834 22 117 4.8 8.0 0.00 0.00 0.00 50 981.7
20260506164434 22 106 4.8 8.0 0.00 0.00 0.00 50 981.8
20260506164032 22 123 3.2 4.8 0.00 0.00 0.00 50 981.9
20260506163632 22 111 4.8 9.7 0.00 0.00 0.00 50 981.9
20260506163232 22 121 3.2 6.4 0.00 0.00 0.00 50 981.9
20260506162832 22 128 3.2 6.4 0.00 0.00 0.00 50 982.0
20260506162432 22 172 3.2 9.7 0.00 0.00 0.00 50 982.0
20260506162030 22 100 1.6 3.2 0.00 0.00 0.00 50 982.1
20260506161628 22 97 0.0 1.6 0.00 0.00 0.00 50 982.1
20260506161228 22 98 1.6 3.2 0.00 0.00 0.00 50 982.1
20260506160820 22 177 0.0 3.2 0.00 0.00 0.00 50 982.2
20260506160419 22 190 1.6 3.2 0.00 0.00 0.00 50 982.1
20260506160017 22 165 1.6 3.2 0.00 0.00 0.00 51 982.2
20260506155616 22 190 1.6 3.2 0.00 0.00 0.00 51 982.3
20260506155216 22 202 3.2 6.4 0.00 0.00 0.00 51 982.3
20260506154816 22 199 3.2 4.8 0.00 0.00 0.00 51 982.4
20260506154415 22 217 4.8 8.0 0.00 0.00 0.00 51 982.4
20260506154013 22 224 6.4 9.7 0.00 0.00 0.00 50 982.4
20260506153613 22 214 4.8 6.4 0.00 0.00 0.00 50 982.5
20260506153213 22 175 1.6 8.0 0.00 0.00 0.00 50 982.5
20260506152813 22 190 4.8 8.0 0.00 0.00 0.00 50 982.6
20260506152413 22 203 4.8 8.0 0.00 0.00 0.00 50 982.6
20260506152011 22 204 9.7 11.3 0.00 0.00 0.00 50 982.6
20260506151612 22 199 11.3 19.3 0.00 0.00 0.00 49 982.6
20260506151211 22 187 8.0 19.3 0.00 0.00 0.00 48 982.6
20260506150809 22 167 6.4 19.3 0.00 0.00 0.00 48 982.6
20260506150409 22 189 6.4 14.5 0.00 0.00 0.00 47 982.7
20260506150006 22 168 8.0 12.9 0.00 0.00 0.00 47 982.7
20260506145606 22 141 6.4 16.1 0.00 0.00 0.00 46 982.7
20260506145206 23 161 4.8 9.7 0.00 0.00 0.00 46 982.7
20260506144806 23 173 3.2 6.4 0.00 0.00 0.00 45 982.7
20260506144406 23 305 3.2 4.8 0.00 0.00 0.00 45 982.7
20260506144004 23 236 3.2 4.8 0.00 0.00 0.00 45 982.8
20260506143604 23 235 3.2 4.8 0.00 0.00 0.00 45 982.8
20260506143202 23 281 1.6 3.2 0.00 0.00 0.00 44 982.7
20260506142802 23 268 4.8 8.0 0.00 0.00 0.00 44 982.7
20260506142402 23 273 8.0 11.3 0.00 0.00 0.00 44 982.7
20260506142000 23 265 3.2 6.4 0.00 0.00 0.00 44 982.7
20260506141559 23 234 3.2 8.0 0.00 0.00 0.00 44 982.8
20260506141159 23 242 4.8 9.7 0.00 0.00 0.00 44 982.8
20260506140759 23 228 3.2 6.4 0.00 0.00 0.00 45 982.8
20260506140359 23 238 4.8 9.7 0.00 0.00 0.00 44 982.9
20260506135957 23 272 8.0 11.3 0.00 0.00 0.00 44 982.9
20260506135555 23 267 1.6 4.8 0.00 0.00 0.00 44 982.9
20260506135155 23 170 3.2 6.4 0.00 0.00 0.00 45 983.0
20260506134755 23 200 6.4 9.7 0.00 0.00 0.00 44 983.1
20260506134355 23 235 9.7 16.1 0.00 0.00 0.00 44 983.1
20260506133945 23 217 8.0 14.5 0.00 0.00 0.00 44 983.1
20260506133545 23 187 9.7 14.5 0.00 0.00 0.00 44 983.1
20260506133143 23 199 4.8 8.0 0.00 0.00 0.00 44 983.1
20260506132742 23 224 8.0 12.9 0.00 0.00 0.00 44 983.1
20260506132342 23 215 9.7 14.5 0.00 0.00 0.00 44 983.1
20260506131940 23 204 11.3 16.1 0.00 0.00 0.00 44 983.1
20260506131540 23 188 16.1 22.5 0.00 0.00 0.00 44 983.1
20260506131140 23 214 9.7 16.1 0.00 0.00 0.00 44 983.1
20260506130740 23 229 9.7 14.5 0.00 0.00 0.00 44 983.1
20260506130340 23 200 12.9 20.9 0.00 0.00 0.00 44 983.0
20260506125938 23 225 16.1 19.3 0.00 0.00 0.00 43 983.1
20260506125538 23 200 14.5 19.3 0.00 0.00 0.00 44 983.1
20260506125138 23 206 16.1 22.5 0.00 0.00 0.00 43 983.2
20260506124736 23 208 17.7 29.0 0.00 0.00 0.00 43 983.2
20260506124336 23 218 9.7 16.1 0.00 0.00 0.00 43 983.1
20260506123934 23 256 16.1 22.5 0.00 0.00 0.00 44 983.2
20260506123534 23 222 11.3 19.3 0.00 0.00 0.00 44 983.3
20260506123133 23 188 6.4 14.5 0.00 0.00 0.00 44 983.2
20260506122734 23 188 9.7 19.3 0.00 0.00 0.00 44 983.3
20260506122334 22 171 11.3 22.5 0.00 0.00 0.00 45 983.4
20260506121932 22 176 11.3 17.7 0.00 0.00 0.00 45 983.4
20260506121532 22 209 16.1 19.3 0.00 0.00 0.00 45 983.4
20260506121132 22 199 12.9 22.5 0.00 0.00 0.00 45 983.4
20260506120731 22 201 12.9 20.9 0.00 0.00 0.00 46 983.3
20260506120331 22 174 12.9 19.3 0.00 0.00 0.00 47 983.2
20260506115929 22 190 12.9 29.0 0.00 0.00 0.00 48 983.2
20260506115529 22 197 6.4 11.3 0.00 0.00 0.00 49 983.2
20260506115129 22 224 4.8 8.0 0.00 0.00 0.00 49 983.2
20260506114729 22 228 8.0 12.9 0.00 0.00 0.00 49 983.2
20260506114329 22 202 8.0 16.1 0.00 0.00 0.00 49 983.2
20260506113927 22 215 8.0 16.1 0.00 0.00 0.00 49 983.2
20260506113524 22 212 16.1 25.7 0.00 0.00 0.00 49 983.2
20260506113124 22 188 8.0 14.5 0.00 0.00 0.00 49 983.3
20260506112725 22 202 12.9 19.3 0.00 0.00 0.00 50 983.3
20260506112324 22 217 8.0 17.7 0.00 0.00 0.00 50 983.3
20260506111922 21 216 12.9 27.4 0.00 0.00 0.00 51 983.3
20260506111522 21 143 6.4 16.1 0.00 0.00 0.00 51 983.4
20260506111122 21 179 11.3 24.1 0.00 0.00 0.00 52 983.4
20260506110715 21 223 12.9 16.1 0.00 0.00 0.00 52 983.3
20260506110314 21 246 12.9 24.1 0.00 0.00 0.00 53 983.2
20260506105911 21 235 9.7 16.1 0.00 0.00 0.00 53 983.4
20260506105510 21 242 12.9 22.5 0.00 0.00 0.00 54 983.4
20260506105110 21 234 14.5 22.5 0.00 0.00 0.00 53 983.4
20260506104710 21 174 4.8 9.7 0.00 0.00 0.00 54 983.5
20260506104310 21 174 16.1 24.1 0.00 0.00 0.00 54 983.5
20260506103909 20 213 8.0 12.9 0.00 0.00 0.00 55 983.4
20260506103509 20 209 16.1 24.1 0.00 0.00 0.00 55 983.4
20260506103109 20 237 16.1 22.5 0.00 0.00 0.00 56 983.4
20260506102706 20 208 9.7 17.7 0.00 0.00 0.00 56 983.5
20260506102306 20 221 17.7 25.7 0.00 0.00 0.00 56 983.5
20260506101904 20 240 17.7 27.4 0.00 0.00 0.00 57 983.5
20260506101504 20 219 12.9 16.1 0.00 0.00 0.00 58 983.5
20260506101104 20 238 9.7 17.7 0.00 0.00 0.00 58 983.5
20260506100704 20 217 17.7 25.7 0.00 0.00 0.00 58 983.4
20260506100304 20 242 17.7 27.4 0.00 0.00 0.00 57 983.4
20260506095901 20 219 16.1 27.4 0.00 0.00 0.00 58 983.4
20260506095501 20 216 12.9 19.3 0.00 0.00 0.00 58 983.5
20260506095101 20 234 19.3 27.4 0.00 0.00 0.00 58 983.5
20260506094701 20 215 9.7 16.1 0.00 0.00 0.00 58 983.5
20260506094301 20 215 12.9 19.3 0.00 0.00 0.00 58 983.5
20260506093859 20 226 19.3 25.7 0.00 0.00 0.00 58 983.4
20260506093459 20 243 9.7 20.9 0.00 0.00 0.00 58 983.4
20260506093059 20 224 8.0 12.9 0.00 0.00 0.00 58 983.4
20260506092659 20 224 16.1 25.7 0.00 0.00 0.00 58 983.4
20260506092259 20 215 22.5 25.7 0.00 0.00 0.00 57 983.3
20260506091857 20 213 12.9 16.1 0.00 0.00 0.00 57 983.4
20260506091455 20 217 22.5 33.8 0.00 0.00 0.00 57 983.4
20260506091055 20 243 17.7 22.5 0.00 0.00 0.00 57 983.4
20260506090655 20 219 9.7 20.9 0.00 0.00 0.00 57 983.4
20260506090255 20 203 12.9 19.3 0.00 0.00 0.00 57 983.4
20260506085853 20 220 17.7 24.1 0.00 0.00 0.00 57 983.3
20260506085053 20 184 11.3 19.3 0.00 0.00 0.00 57 983.3
20260506084653 20 206 16.1 24.1 0.00 0.00 0.00 58 983.2
20260506084253 20 214 16.1 19.3 0.00 0.00 0.00 59 983.2
20260506083844 20 222 16.1 24.1 0.00 0.00 0.00 59 983.2
20260506083443 20 211 14.5 22.5 0.00 0.00 0.00 59 983.2
20260506083042 20 201 14.5 22.5 0.00 0.00 0.00 59 983.3
20260506082641 20 205 17.7 25.7 0.00 0.00 0.00 60 983.3
20260506082241 19 239 9.7 16.1 0.00 0.00 0.00 60 983.1
20260506081839 19 224 16.1 24.1 0.00 0.00 0.00 60 983.1
20260506081439 19 224 4.8 9.7 0.00 0.00 0.00 62 983.1
20260506081039 18 209 9.7 19.3 0.00 0.00 0.00 62 983.1
20260506080637 18 231 11.3 19.3 0.00 0.00 0.00 63 983.1
20260506080236 18 202 9.7 19.3 0.00 0.00 0.00 63 983.0
20260506073433 18 208 12.9 19.3 0.00 0.00 0.00 64 983.1
20260506073033 18 189 11.3 19.3 0.00 0.00 0.00 64 983.1
20260506072633 18 203 9.7 16.1 0.00 0.00 0.00 65 983.1
20260506072233 18 227 11.3 17.7 0.00 0.00 0.00 64 983.1
20260506071831 18 208 6.4 11.3 0.00 0.00 0.00 65 983.1
20260506071431 18 208 8.0 16.1 0.00 0.00 0.00 65 983.0
20260506071031 18 227 9.7 14.5 0.00 0.00 0.00 65 983.0
20260506070631 18 222 16.1 25.7 0.00 0.00 0.00 65 983.0
20260506070231 17 230 9.7 16.1 0.00 0.00 0.00 65 983.1
20260506062225 17 201 4.8 8.0 0.00 0.00 0.00 65 982.7
20260506061823 17 195 6.4 9.7 0.00 0.00 0.00 65 982.8
20260506061423 17 197 6.4 12.9 0.00 0.00 0.00 65 982.8
20260506061023 17 155 3.2 4.8 0.00 0.00 0.00 66 982.8
20260506060615 17 181 3.2 6.4 0.00 0.00 0.00 66 982.9
20260506060214 17 187 4.8 6.4 0.00 0.00 0.00 66 982.8
20260506051403 15 161 3.2 8.0 0.00 0.00 0.00 70 982.3
20260506051003 15 146 3.2 6.4 0.00 0.00 0.00 70 982.3
20260506050603 15 177 4.8 6.4 0.00 0.00 0.00 70 982.3
20260506050204 15 170 3.2 6.4 0.00 0.00 0.00 70 982.4
20260506045001 15 172 8.0 12.9 0.00 0.00 0.00 70 982.3
20260506044601 15 189 6.4 12.9 0.00 0.00 0.00 70 982.3
20260506044201 15 177 6.4 11.3 0.00 0.00 0.00 70 982.3
20260506043759 15 170 4.8 9.7 0.00 0.00 0.00 70 982.2
20260506043357 15 172 6.4 11.3 0.00 0.00 0.00 70 982.1
20260506042957 15 166 6.4 11.3 0.00 0.00 0.00 70 982.1
20260506042557 15 151 4.8 8.0 0.00 0.00 0.00 70 981.9
20260506042157 15 116 4.8 8.0 0.00 0.00 0.00 70 981.8
20260506041755 15 133 4.8 9.7 0.00 0.00 0.00 70 981.9
20260506041355 15 149 3.2 6.4 0.00 0.00 0.00 70 982.0
20260506040955 15 166 4.8 6.4 0.00 0.00 0.00 70 982.0
20260506040555 15 153 4.8 8.0 0.00 0.00 0.00 70 981.9
20260506040155 15 165 1.6 6.4 0.00 0.00 0.00 70 981.9
20260506035753 15 126 3.2 4.8 0.00 0.00 0.00 70 981.8
20260506035353 15 123 3.2 4.8 0.00 0.00 0.00 70 981.7
20260506034953 15 131 3.2 4.8 0.00 0.00 0.00 70 981.7
20260506034553 15 132 3.2 6.4 0.00 0.00 0.00 70 981.7
20260506034153 15 124 4.8 8.0 0.00 0.00 0.00 70 981.7
20260506033744 15 145 4.8 6.4 0.00 0.00 0.00 70 981.7
20260506033343 15 139 4.8 8.0 0.00 0.00 0.00 69 981.8
20260506032942 15 151 4.8 6.4 0.00 0.00 0.00 69 981.8
20260506032538 15 143 3.2 6.4 0.00 0.00 0.00 69 981.8
20260506032138 15 138 4.8 6.4 0.00 0.00 0.00 69 981.8
20260506031736 15 132 3.2 6.4 0.00 0.00 0.00 68 981.9
20260506031336 15 138 3.2 8.0 0.00 0.00 0.00 68 981.9
20260506030936 15 138 3.2 6.4 0.00 0.00 0.00 68 982.0
20260506030536 15 159 4.8 9.7 0.00 0.00 0.00 68 982.0
20260506030136 15 154 6.4 9.7 0.00 0.00 0.00 67 982.0
20260506025734 15 160 6.4 9.7 0.00 0.00 0.00 67 981.9
20260506025334 15 158 6.4 9.7 0.00 0.00 0.00 67 982.0
20260506024934 15 151 4.8 9.7 0.00 0.00 0.00 66 982.1
20260506024534 15 162 3.2 8.0 0.00 0.00 0.00 66 982.1
20260506024133 16 143 3.2 6.4 0.00 0.00 0.00 66 982.1
20260506023731 16 136 3.2 4.8 0.00 0.00 0.00 65 982.1
20260506023331 16 132 3.2 4.8 0.00 0.00 0.00 65 982.1
20260506022931 16 126 3.2 4.8 0.00 0.00 0.00 65 982.1
20260506022531 16 171 1.6 3.2 0.00 0.00 0.00 65 982.1
20260506022131 16 179 1.6 3.2 0.00 0.00 0.00 64 982.1
20260506021729 16 156 3.2 6.4 0.00 0.00 0.00 64 982.1
20260506021327 16 172 3.2 4.8 0.00 0.00 0.00 64 982.1
20260506020926 16 156 3.2 3.2 0.00 0.00 0.00 64 982.1
20260506020526 16 181 3.2 4.8 0.00 0.00 0.00 64 982.1
20260506020126 16 202 0.0 0.0 0.00 0.00 0.00 64 982.0
20260506015724 16 198 1.6 3.2 0.00 0.00 0.00 63 982.1
20260506015324 16 185 1.6 3.2 0.00 0.00 0.00 63 982.0
20260506014924 16 198 3.2 3.2 0.00 0.00 0.00 63 982.1
20260506014524 16 213 1.6 3.2 0.00 0.00 0.00 63 982.0
20260506014124 16 218 3.2 6.4 0.00 0.00 0.00 63 982.1
20260506013722 16 213 4.8 6.4 0.00 0.00 0.00 63 982.0
20260506013322 16 230 3.2 4.8 0.00 0.00 0.00 63 982.1
20260506012922 16 224 4.8 8.0 0.00 0.00 0.00 63 982.0
20260506012522 16 212 6.4 8.0 0.00 0.00 0.00 62 982.0
20260506012122 16 196 3.2 6.4 0.00 0.00 0.00 62 982.0
20260506011720 16 198 6.4 9.7 0.00 0.00 0.00 62 982.0
20260506011320 16 186 4.8 9.7 0.00 0.00 0.00 62 982.0
20260506010920 16 171 6.4 11.3 0.00 0.00 0.00 61 982.0
20260506010510 16 163 6.4 11.3 0.00 0.00 0.00 61 982.0
20260506010109 16 168 4.8 12.9 0.00 0.00 0.00 60 982.0
20260506005706 16 160 3.2 9.7 0.00 0.00 0.00 60 981.9
20260506005306 16 144 6.4 11.3 0.00 0.00 0.00 60 981.9
20260506004905 16 156 1.6 3.2 0.00 0.00 0.00 60 981.9
20260506004505 17 147 6.4 11.3 0.00 0.00 0.00 59 981.9
20260506004105 17 142 4.8 14.5 0.00 0.00 0.00 59 981.8
20260506003703 17 147 4.8 8.0 0.00 0.00 0.00 59 981.8
20260506003303 17 128 6.4 11.3 0.00 0.00 0.00 58 981.7
20260506002903 17 120 6.4 12.9 0.00 0.00 0.00 58 981.7
20260506002503 17 135 4.8 8.0 0.00 0.00 0.00 58 981.8
20260506002103 17 146 6.4 12.9 0.00 0.00 0.00 58 981.9
20260506001701 17 136 6.4 11.3 0.00 0.00 0.00 57 981.9
20260506001301 17 169 6.4 11.3 0.00 0.00 0.00 57 981.9
20260506000901 17 156 4.8 9.7 0.00 0.00 0.00 57 981.9
20260506000501 17 152 8.0 19.3 0.00 0.00 0.00 57 981.9
20260505235700 17 163 8.0 16.1 0.00 0.00 0.00 56 982.0
20260505235257 17 165 9.7 16.1 0.00 0.00 0.00 56 982.0
20260505234857 17 141 8.0 14.5 0.00 0.00 0.00 55 982.0
20260505234457 17 142 8.0 12.9 0.00 0.00 0.00 55 982.1
20260505234057 17 150 8.0 14.5 0.00 0.00 0.00 55 982.1
20260505233655 17 147 8.0 17.7 0.00 0.00 0.00 55 982.1
20260505233255 18 149 6.4 14.5 0.00 0.00 0.00 54 982.1
20260505232855 18 135 6.4 11.3 0.00 0.00 0.00 54 982.1
20260505232456 18 152 6.4 12.9 0.00 0.00 0.00 54 982.1
20260505232056 18 147 9.7 17.7 0.00 0.00 0.00 54 982.2
20260505231654 18 142 9.7 17.7 0.00 0.00 0.00 53 982.2
20260505231254 18 143 11.3 24.1 0.00 0.00 0.00 53 982.2
20260505230854 18 151 11.3 19.3 0.00 0.00 0.00 53 982.2
20260505230454 18 163 8.0 14.5 0.00 0.00 0.00 53 982.2
20260505230054 18 145 11.3 16.1 0.00 0.00 0.00 53 982.2
20260505225652 18 143 11.3 20.9 0.00 0.00 0.00 52 982.2
20260505225252 18 148 11.3 20.9 0.00 0.00 0.00 52 982.2
20260505224852 18 135 9.7 17.7 0.00 0.00 0.00 52 982.2
20260505224450 18 142 11.3 25.7 0.00 0.00 0.00 52 982.3